Location: Milton
(43.5183°N, 79.8775°W)
Time: 13:00:37
(UTC+00:00)

ESTCUBE 1 - Pass Details

Date: 09 April 2023
Orbit: 640 x 654 km, 97.9° (Epoch: 29 May)

Event Time Altitude Azimuth Distance (km) Brightness Sun altitude
Exits shadow 03:12:52 33° 351° (N) 1,099 ? -31.3°
Drops below altitude 10° 03:15:23 10° 349° (N) 2,072 ? -31.6°
Sets 03:17:36 0° 349° (NNW) 2,986 ? -31.8°
